User: anonymous   Login
Location: Charlottesville
(38.0290°N, 78.4770°W)
Time: 22:39:35
(UTC-04:00)
Language:

Envisat - Orbit

View from above orbital plane
View from above orbital plane
View from above satellite
View from above satellite

Ground track
Ground track

The orbit data is extracted from the following two-line orbital elements,

1 27386U 02009A   18295.15619382  .00000004  00000-0  14805-4 0  9993
2 27386  98.1736 323.1607 0001168  96.2789 308.1874 14.37932336871773
Epoch (UTC): 22 October 2018 03:44:55
Eccentricity: 0.0001168
inclination: 98.1736°
perigee height: 764 km
apogee height: 766 km
right ascension of ascending node: 323.1607°
argument of perigee: 96.2789°
revolutions per day: 14.37932336
mean anomaly at epoch: 308.1874°
orbit number at epoch: 87177

The dashed part of the orbit path shows where the satellite is in the earth's shadow,  

DLR